• In Uzbekistan
  • List of Countries
  • For 7 days
  • Water Temperature
  • Satellite Maps
  • Weather Map
  • Weather Widgets
  • user-avatar
    Login

    Hourly Weather Talas

    Today, 20 June, Thursday

    Time Temperature Precipitation Wind Pressure Humidity
    00:00 +8°C° 0 mm 3 mps 594 mmHg 74%
    01:00 +9°C° 0 mm 3 mps 594 mmHg 73%
    02:00 +9°C° 0 mm 3 mps 594 mmHg 72%
    03:00 +8°C° 0 mm 3 mps 594 mmHg 74%
    04:00 +8°C° 0 mm 3 mps 595 mmHg 75%
    05:00 +8°C° 0 mm 3 mps 595 mmHg 77%
    06:00 +10°C° 0 mm 2 mps 596 mmHg 72%
    07:00 +13°C° 0 mm 2 mps 597 mmHg 67%
    08:00 +15°C° 0 mm 1 mps 598 mmHg 62%
    09:00 +16°C° 0.1 mm 1 mps 598 mmHg 58%
    10:00 +18°C° 0.1 mm 1 mps 598 mmHg 54%
    11:00 +19°C° 0.1 mm 1 mps 598 mmHg 51%
    12:00 +19°C° 0.5 mm 2 mps 598 mmHg 50%
    13:00 +19°C° 0.5 mm 2 mps 598 mmHg 50%
    14:00 +19°C° 0.5 mm 3 mps 597 mmHg 50%
    15:00 +19°C° 0.4 mm 3 mps 597 mmHg 49%
    16:00 +19°C° 0.4 mm 3 mps 597 mmHg 49%
    17:00 +19°C° 0.4 mm 3 mps 597 mmHg 48%
    18:00 +17°C° 0 mm 2 mps 596 mmHg 54%
    19:00 +15°C° 0 mm 2 mps 595 mmHg 60%
    20:00 +13°C° 0 mm 1 mps 595 mmHg 66%
    21:00 +13°C° 0 mm 1 mps 595 mmHg 64%
    22:00 +12°C° 0 mm 2 mps 595 mmHg 62%
    23:00 +12°C° 0 mm 2 mps 595 mmHg 61%

    Tomorrow, 21 June, Friday

    Time Temperature Precipitation Wind Pressure Humidity
    00:00 +12°C° 0 mm 2 mps 594 mmHg 62%
    01:00 +11°C° 0 mm 3 mps 594 mmHg 63%
    02:00 +11°C° 0 mm 3 mps 594 mmHg 65%
    03:00 +10°C° 0 mm 3 mps 594 mmHg 67%
    04:00 +10°C° 0 mm 3 mps 594 mmHg 68%
    05:00 +10°C° 0 mm 3 mps 594 mmHg 70%
    06:00 +14°C° 0 mm 2 mps 595 mmHg 64%
    07:00 +16°C° 0 mm 2 mps 596 mmHg 58%
    08:00 +19°C° 0 mm 1 mps 597 mmHg 52%
    09:00 +20°C° 0.1 mm 1 mps 598 mmHg 49%
    10:00 +21°C° 0.1 mm 1 mps 598 mmHg 45%
    11:00 +22°C° 0.1 mm 1 mps 598 mmHg 42%
    12:00 +21°C° 0.3 mm 2 mps 598 mmHg 44%
    13:00 +21°C° 0.3 mm 2 mps 598 mmHg 46%
    14:00 +21°C° 0.3 mm 2 mps 597 mmHg 47%
    15:00 +21°C° 0.8 mm 2 mps 597 mmHg 48%
    16:00 +21°C° 0.8 mm 2 mps 597 mmHg 49%
    17:00 +20°C° 0.8 mm 2 mps 597 mmHg 50%
    18:00 +19°C° 0.3 mm 2 mps 596 mmHg 54%
    19:00 +18°C° 0.3 mm 1 mps 596 mmHg 59%
    20:00 +15°C° 0.3 mm 1 mps 595 mmHg 63%
    21:00 +14°C° 0 mm 1 mps 595 mmHg 63%
    22:00 +13°C° 0 mm 1 mps 594 mmHg 63%
    23:00 +13°C° 0 mm 1 mps 594 mmHg 63%

    Day after tomorrow, 22 June, Saturday

    Time Temperature Precipitation Wind Pressure Humidity
    00:00 +12°C° 0 mm 1 mps 594 mmHg 64%
    01:00 +12°C° 0 mm 1 mps 593 mmHg 66%
    02:00 +10°C° 0 mm 0 mps 593 mmHg 67%
    03:00 +10°C° 0 mm 0 mps 593 mmHg 68%
    04:00 +9°C° 0 mm 0 mps 594 mmHg 70%
    05:00 +9°C° 0 mm 0 mps 594 mmHg 72%
    06:00 +11°C° 0.1 mm 0 mps 595 mmHg 66%
    07:00 +13°C° 0.1 mm 0 mps 596 mmHg 60%
    08:00 +16°C° 0.1 mm 1 mps 598 mmHg 54%
    09:00 +18°C° 0.2 mm 1 mps 598 mmHg 52%
    10:00 +18°C° 0.2 mm 2 mps 598 mmHg 51%
    11:00 +18°C° 0.2 mm 2 mps 599 mmHg 49%
    12:00 +19°C° 0.4 mm 3 mps 599 mmHg 48%
    13:00 +19°C° 0.4 mm 3 mps 598 mmHg 48%
    14:00 +20°C° 0.4 mm 3 mps 598 mmHg 47%
    15:00 +19°C° 0.4 mm 3 mps 598 mmHg 47%
    16:00 +19°C° 0.4 mm 3 mps 598 mmHg 47%
    17:00 +19°C° 0.4 mm 3 mps 598 mmHg 47%
    18:00 +17°C° 0.1 mm 2 mps 597 mmHg 52%
    19:00 +15°C° 0.1 mm 2 mps 597 mmHg 58%
    20:00 +13°C° 0.1 mm 1 mps 596 mmHg 63%
    21:00 +12°C° 0 mm 1 mps 596 mmHg 64%
    22:00 +12°C° 0 mm 1 mps 596 mmHg 65%
    23:00 +11°C° 0 mm 1 mps 596 mmHg 65%

    23 June, Sunday

    Time Temperature Precipitation Wind Pressure Humidity
    00:00 +11°C° 0 mm 1 mps 596 mmHg 66%
    01:00 +10°C° 0 mm 1 mps 596 mmHg 66%
    02:00 +10°C° 0 mm 1 mps 595 mmHg 66%
    03:00 +10°C° 0 mm 1 mps 596 mmHg 67%
    04:00 +10°C° 0 mm 1 mps 596 mmHg 67%
    05:00 +9°C° 0 mm 2 mps 596 mmHg 68%
    06:00 +12°C° 0.1 mm 1 mps 597 mmHg 63%
    07:00 +14°C° 0.1 mm 1 mps 598 mmHg 58%
    08:00 +18°C° 0.1 mm 1 mps 600 mmHg 53%
    09:00 +18°C° 0.1 mm 1 mps 600 mmHg 50%
    10:00 +18°C° 0.1 mm 2 mps 600 mmHg 48%
    11:00 +19°C° 0.1 mm 3 mps 600 mmHg 45%
    12:00 +20°C° 0.1 mm 3 mps 600 mmHg 44%
    13:00 +20°C° 0.1 mm 3 mps 600 mmHg 43%
    14:00 +20°C° 0.1 mm 3 mps 600 mmHg 41%
    15:00 +20°C° 0.1 mm 3 mps 600 mmHg 41%
    16:00 +20°C° 0.1 mm 3 mps 600 mmHg 41%
    17:00 +20°C° 0.1 mm 2 mps 600 mmHg 41%
    18:00 +17°C° 0 mm 2 mps 599 mmHg 48%
    19:00 +15°C° 0 mm 2 mps 598 mmHg 56%
    20:00 +13°C° 0 mm 1 mps 597 mmHg 64%
    21:00 +12°C° 0 mm 1 mps 597 mmHg 65%
    22:00 +12°C° 0 mm 1 mps 597 mmHg 65%
    23:00 +11°C° 0 mm 1 mps 597 mmHg 66%

    24 June, Monday

    Time Temperature Precipitation Wind Pressure Humidity
    00:00 +11°C° 0 mm 1 mps 597 mmHg 65%
    01:00 +11°C° 0 mm 1 mps 596 mmHg 64%
    02:00 +10°C° 0 mm 1 mps 596 mmHg 63%
    03:00 +10°C° 0 mm 1 mps 596 mmHg 62%
    04:00 +10°C° 0 mm 1 mps 596 mmHg 61%
    05:00 +10°C° 0 mm 1 mps 596 mmHg 59%
    06:00 +12°C° 0 mm 1 mps 597 mmHg 53%
    07:00 +14°C° 0 mm 0 mps 598 mmHg 46%
    08:00 +16°C° 0 mm 0 mps 599 mmHg 40%
    09:00 +19°C° 0 mm 1 mps 600 mmHg 40%
    10:00 +19°C° 0 mm 2 mps 600 mmHg 40%
    11:00 +20°C° 0 mm 3 mps 600 mmHg 40%
    12:00 +20°C° 0 mm 3 mps 600 mmHg 40%
    13:00 +20°C° 0 mm 3 mps 600 mmHg 41%
    14:00 +21°C° 0 mm 3 mps 600 mmHg 42%
    15:00 +20°C° 0.1 mm 3 mps 599 mmHg 41%
    16:00 +20°C° 0.1 mm 3 mps 599 mmHg 40%
    17:00 +20°C° 0.1 mm 3 mps 599 mmHg 39%
    18:00 +17°C° 0 mm 2 mps 598 mmHg 45%
    19:00 +15°C° 0 mm 1 mps 597 mmHg 51%
    20:00 +11°C° 0 mm 0 mps 596 mmHg 57%
    21:00 +12°C° 0 mm 1 mps 596 mmHg 56%
    22:00 +12°C° 0 mm 1 mps 596 mmHg 55%
    23:00 +11°C° 0 mm 1 mps 596 mmHg 54%

    25 June, Tuesday

    Time Temperature Precipitation Wind Pressure Humidity
    00:00 +11°C° 0 mm 1 mps 596 mmHg 55%
    01:00 +11°C° 0 mm 1 mps 595 mmHg 56%
    02:00 +11°C° 0 mm 1 mps 595 mmHg 57%
    03:00 +11°C° 0 mm 1 mps 595 mmHg 58%
    04:00 +11°C° 0 mm 1 mps 595 mmHg 59%
    05:00 +10°C° 0 mm 1 mps 595 mmHg 59%
    06:00 +13°C° 0 mm 1 mps 596 mmHg 53%
    07:00 +16°C° 0 mm 1 mps 597 mmHg 48%
    08:00 +19°C° 0 mm 1 mps 599 mmHg 42%
    09:00 +20°C° 0.1 mm 1 mps 599 mmHg 41%
    10:00 +21°C° 0.1 mm 1 mps 599 mmHg 41%
    11:00 +21°C° 0.1 mm 2 mps 599 mmHg 40%
    12:00 +21°C° 0.7 mm 2 mps 599 mmHg 42%
    13:00 +21°C° 0.7 mm 3 mps 599 mmHg 43%
    14:00 +21°C° 0.7 mm 3 mps 598 mmHg 44%
    15:00 +21°C° 0.3 mm 3 mps 598 mmHg 44%
    16:00 +21°C° 0.3 mm 2 mps 598 mmHg 43%
    17:00 +20°C° 0.3 mm 2 mps 598 mmHg 43%
    18:00 +18°C° 0 mm 2 mps 597 mmHg 49%
    19:00 +16°C° 0 mm 1 mps 596 mmHg 55%
    20:00 +13°C° 0 mm 1 mps 595 mmHg 61%
    21:00 +13°C° 0 mm 1 mps 595 mmHg 60%
    22:00 +12°C° 0 mm 1 mps 595 mmHg 60%
    23:00 +12°C° 0 mm 1 mps 595 mmHg 59%
    Show more